Location: Sorrento
(32.9009°N, 117.2231°W)
Time: 00:28:43
(UTC+00:00)

Daily predictions for brighter satellites

Satellite Brightness Start Highest point End
(mag) Time Altitude Azimuth Time Altitude Azimuth Time Altitude Azimuth
Cosmos 1812 4.0 03:11:50 10° SSW 03:15:28 46° W 03:19:09 10° N
Cosmos 1328 Rocket 4.2 03:14:35 10° SSE 03:18:30 35° E 03:22:26 10° NNE
H-2A R/B 2.8 03:15:31 10° NE 03:19:07 29° E 03:22:44 10° SSE
Cosmos 1486 Rocket 4.4 03:16:33 10° S 03:21:30 41° E 03:26:26 10° NNE
Cosmos 2369 4.5 03:16:43 10° SSE 03:21:33 30° ESE 03:26:24 10° NE
Cosmos 1814 Rocket 4.0 03:18:02 10° N 03:23:07 63° ENE 03:28:12 10° SSE
MetOp-A 4.0 03:22:09 10° SE 03:25:59 39° ENE 03:29:38 10° N
Cosmos 841 Rocket 4.2 03:23:43 10° NNW 03:28:44 55° WSW 03:33:47 10° S
Cosmos 1697 Rocket 2.7 03:24:06 10° S 03:29:42 69° ESE 03:35:20 10° NNE
CZ-4B R/B 2.7 03:29:09 10° NE 03:31:30 19° E 03:33:29 12° SE
Cosmos 2098 Rocket 3.5 03:30:27 10° NNW 03:33:13 37° W 03:35:54 10° SSW
USA 186 1.0 03:31:19 10° S 03:33:46 88° WSW 03:36:08 10° NNW
Gbstr 26 Del rocket 4.1 03:27:56 10° NW 03:35:26 90° NE 03:41:07 12° SE
deb Chang Zheng 4 4.0 03:31:27 10° S 03:35:30 59° WSW 03:39:35 10° NNW
Cosmos 2360 4.2 03:30:55 10° SSW 03:36:34 75° ESE 03:42:14 10° NNE
CSL-04 Debris 4.2 03:31:17 10° SSE 03:36:43 88° WSW 03:42:09 10° NNW
OBJECT-B 1.7 03:34:19 10° S 03:37:06 43° W 03:39:53 10° NNW
Cosmos 1151 Rocket 3.2 03:33:30 10° S 03:37:46 75° W 03:42:02 10° N
Cosmos 1340 3.5 03:40:46 11° SSE 03:43:54 30° E 03:47:11 10° NNE
COBE Rocket 4.1 03:39:49 10° SSE 03:44:51 61° ENE 03:49:48 10° N
CZ-4 R/B 3.8 03:42:17 10° SSW 03:45:24 22° W 03:48:35 10° NW
Cosmos 2297 Rocket 2.2 03:40:28 10° NNW 03:46:07 68° ENE 03:51:08 13° SSE
ATLAS 2AS CENTAUR R/B 3.2 03:39:01 10° S 03:46:21 46° ESE 03:53:37 10° NE
Resurs 1-3 3.6 03:46:17 11° SSE 03:50:24 63° ENE 03:54:45 10° N
Cosmos 1503 Rocket 4.3 03:45:53 10° S 03:50:50 45° ESE 03:55:52 10° NNE
SJ-6B 3.0 03:47:24 10° S 03:51:14 68° W 03:54:59 10° NNW
NOSS 3-4 (A) 4.5 03:46:10 10° SW 03:51:34 46° NW 03:57:15 10° NNE
NOSS 3-4 (C) 4.5 03:46:11 10° SW 03:51:37 46° NW 03:57:20 10° NNE
Cosmos 1666 Rocket 3.5 03:47:53 10° N 03:52:19 81° E 03:56:45 10° S
H-2A R/B 2.9 03:48:40 10° S 03:53:03 67° WSW 03:57:19 10° NNW
SJ 16-02 2.4 03:52:33 17° SE 03:54:44 26° E 03:58:20 10° NE
Cosmos 1315 Rocket 2.7 03:52:08 10° N 03:56:11 87° E 03:59:46 13° S
SL-16 R/B 4.1 04:00:33 11° E 04:00:33 11° E 04:01:37 10° ENE
Cosmos 1633 Rocket 2.9 03:55:50 10° N 04:00:13 80° E 04:03:56 14° S
ATLAS 5 CENTAUR R/B 3.4 03:48:18 10° W 04:02:08 28° SSW 04:06:10 15° SSE
Cosmos 1072 Rocket 4.5 03:57:16 10° S 04:03:15 60° E 04:09:14 10° NNE
Cosmos 1743 3.7 04:00:53 10° NNE 04:04:10 28° E 04:05:10 25° ESE
SPOT 1/Viking Rocket 4.2 04:02:44 21° SE 04:05:39 38° ENE 04:10:23 10° N
Cosmos 1470 Rocket 3.6 04:07:40 10° N 04:11:56 59° E 04:14:11 26° SSE
Meteor 1-27 Rocket 3.8 04:09:32 10° S 04:15:15 90° SE 04:21:08 10° N
OAO 3 Rocket 3.3 04:11:14 10° WNW 04:16:09 76° N 04:19:18 22° E
DASH 3.8 04:01:57 10° W 04:16:41 46° SSW 04:18:48 27° SSE
Resurs 01 Rocket 1.6 04:16:57 28° SSE 04:19:07 63° ENE 04:23:28 10° N
Cosmos 1515 Rocket 3.6 04:14:53 10° S 04:19:14 82° W 04:23:37 10° N
Cosmos 2278 3.8 04:14:33 10° S 04:20:00 52° ESE 04:25:29 10° NNE
Cosmos 2208 Rocket 4.5 04:15:26 10° NNW 04:20:46 62° WSW 04:24:53 17° S
NOSS 3-2 (C) 4.4 04:13:28 10° NW 04:21:28 70° WSW 04:28:22 18° SSE
Ariane Rocket 3.2 04:20:59 29° SE 04:23:19 53° ENE 04:28:16 10° N
Terra 4.0 04:23:27 11° ENE 04:24:03 11° ENE 04:25:25 10° NE
Cosmos 2219 3.1 04:20:13 10° NNW 04:25:51 87° ENE 04:28:56 28° SSE
CENTAUR R/B 4.2 04:17:54 10° NW 04:26:00 44° WSW 04:34:22 10° S
Cosmos 921 Rocket 3.9 04:24:41 10° N 04:28:47 34° ENE 04:29:35 31° E
Landsat 7 4.3 04:26:48 18° S 04:30:14 58° W 04:34:53 10° NNW
SWIFT 4.4 04:28:02 10° SW 04:29:15 13° SSW 04:29:15 13° SSW
Cosmos 2034 Rocket 4.0 04:27:22 20° S 04:31:45 65° E 04:38:00 10° NNE
CARTOSAT-1 4.2 04:31:39 34° E 04:32:20 37° ENE 04:36:19 10° N
Cosmos 2082 4.1 04:27:00 10° N 04:32:25 47° ENE 04:34:24 33° ESE
Cosmos 2263 Rocket 3.5 04:30:06 10° N 04:34:29 23° ENE 04:35:57 21° E
Cosmos 2228 Rocket 3.5 04:36:11 41° ESE 04:36:41 43° E 04:41:00 10° NNE
Meteor 1-11 Rocket 4.0 04:30:54 10° NNW 04:36:52 73° W 04:40:52 21° S
Okean 1 3.2 04:37:50 54° SE 04:38:30 66° E 04:42:28 10° NNE
Cosmos 1869 Rocket 4.5 04:36:18 10° NNE 04:40:18 32° E 04:40:20 32° E
Cosmos 1184 Rocket 4.1 04:39:41 22° SW 04:41:03 35° W 04:43:51 10° N
Cosmos 1536 3.1 04:39:14 10° NNW 04:43:14 66° W 04:44:32 40° SSW
RESURS DK-1 2.4 04:40:29 16° SSW 04:43:45 75° WNW 04:47:52 10° NNE
ASTRO E2 3.3 04:42:50 10° W 04:46:10 41° SSW 04:46:10 41° SSW
SL-4 R/B 2.2 04:44:21 10° NW 04:48:48 62° NE 04:49:24 55° E
BREEZE-M DEB (TANK) 4.3 04:45:57 10° WNW 04:49:30 41° SW 04:51:26 31° S
USA 245 4.4 04:50:02 43° SE 04:51:51 63° ENE 04:58:04 10° N
Cosmos 2227 Rocket 3.0 04:47:52 10° NW 04:53:15 45° WSW 04:56:08 25° SSW
Cosmos 1980 Rocket 3.3 04:49:36 10° SW 04:54:54 43° WNW 05:00:17 10° N
Cosmos 1777 Rocket 3.9 04:53:11 25° SSW 04:56:15 85° WNW 05:01:30 10° NNE
Spot 2 Rocket 4.0 04:56:36 40° E 04:57:01 41° ENE 05:01:44 10° N
SPOT 3 Rocket 3.4 04:59:24 56° SE 05:00:26 77° ENE 05:05:35 10° N
ARIANE 5 R/B 4.4 05:01:18 20° ENE 05:01:18 20° ENE 05:04:03 10° NNE
CZ-4B R/B 4.3 05:01:17 10° NW 05:02:51 13° WNW 05:04:24 10° W
Cosmos 1809 Rocket 4.4 04:57:25 10° N 05:03:36 90° ESE 05:05:42 44° S
Cosmos 2322 Rocket 3.2 05:04:59 30° ENE 05:04:59 30° ENE 05:08:36 10° NE
Cosmos 389 Rocket 3.5 05:00:36 10° NNW 05:03:53 39° W 05:04:00 39° W
Cosmos 773 Rocket 4.0 05:00:23 10° N 05:05:31 58° ENE 05:05:56 56° E
Meteor 2-4 Rocket 3.7 05:10:31 59° SE 05:11:21 68° E 05:17:01 10° NNE
Cosmos 1975 4.2 05:09:27 10° N 05:11:59 30° NE 05:11:59 30° NE
USA 215 4.4 05:09:40 10° ENE 05:12:52 26° E 05:12:52 26° E
Helios 1A Rocket 3.3 05:19:41 57° N 05:19:41 57° N 05:22:56 10° NNW
Cosmos 158 Rocket 4.3 05:23:39 10° N 05:28:23 53° NE 05:28:23 53° NE
CZ-3 Stage 3 3.4 05:19:46 10° W 05:28:02 50° SW 05:28:02 50° SW
USA 81 4.0 05:32:10 77° NE 05:32:10 77° NE 05:37:10 10° N
ERS-1 Rocket 2.9 05:32:27 77° NNE 05:32:27 77° NNE 05:37:11 10° N
SJ 16-02 3.7 05:29:55 10° WSW 05:33:11 21° WNW 05:36:29 10° NNW
Cosmos 1634 Rocket 3.9 05:33:08 60° SSW 05:34:20 83° W 05:40:34 10° N
Cosmos 1733 Rocket 4.5 05:30:27 10° N 05:33:09 31° NE 05:33:09 31° NE
Cosmos 1092 Rocket 3.8 05:28:32 10° N 05:34:43 89° W 05:35:23 73° S
ATLAS 2AS CENTAUR R/B 4.4 05:30:20 10° WSW 05:37:25 37° NW 05:44:22 10° NNE
CZ-2C R/B 4.2 05:34:06 10° N 05:38:47 58° WNW 05:38:58 57° W
Cosmos 2142 Rocket 4.4 05:39:20 68° ESE 05:39:28 69° E 05:45:49 10° NNE
Meteor 2-15 Rocket 4.4 05:40:16 68° E 05:40:16 68° E 05:46:05 10° NNE
SL-16 R/B 2.3 05:42:19 62° WSW 05:43:04 71° WNW 05:48:45 10° NNE
Cosmos 2237 4.3 05:46:08 66° NE 05:46:08 66° NE 05:51:04 10° NNE
Cosmos 1346 Rocket 4.4 05:47:19 35° NNW 05:47:19 35° NNW 05:49:53 10° N
Cosmos 2026 Rocket 4.1 05:53:18 10° NNW 05:59:26 65° W 05:59:48 64° WSW
ISS -0.6 05:58:13 10° NNW 05:58:52 14° NNW 05:58:52 14° NNW
Terra 2.7 06:02:19 47° NW 06:02:19 47° NW 06:05:55 10° NNW
SPOT 5 3.9 06:01:47 43° W 06:01:47 43° W 06:06:29 10° NNW
Cosmos 2360 Rocket 2.8 06:09:14 48° NNE 06:09:14 48° NNE 06:13:16 10° NNE
ATLAS 3B R/B 3.1 06:01:30 10° NNW 06:08:50 57° ENE 06:09:35 55° E
Cosmos 2263 Rocket 3.2 06:13:19 10° NW 06:17:39 37° W 06:17:39 37° W
Cosmos 2266 Rocket 4.4 06:29:18 10° N 06:34:11 54° NNE 06:34:11 54° NNE
H-2A ROCKET BODY 4.1 06:00:09 10° W 06:37:32 55° SSW 06:38:16 54° SSW
ATLAS CENTAUR R/B 4.0 06:35:32 10° N 06:37:47 18° NNE 06:37:47 18° NNE
Cosmos 2322 Rocket 3.8 06:46:43 25° WNW 06:47:36 27° WNW 06:52:17 10° N
Cosmos 2333 Rocket 3.2 06:55:08 42° N 06:55:08 42° N 06:58:49 10° NNE
Cosmos 1844 Rocket 3.7 06:52:34 10° NNW 06:56:11 42° N 06:56:11 42° N
USA 215 3.8 06:52:20 10° NNE 06:58:39 53° NW 07:00:09 44° W
ADEOS Rocket 4.3 07:00:12 28° NE 07:00:12 28° NE 07:04:04 10° N
Cosmos 2219 Rocket 3.4 07:13:11 38° N 07:13:11 38° N 07:16:36 10° NNE
Cosmos 2237 Rocket 3.9 07:43:57 27° NE 07:43:57 27° NE 07:46:37 10° NNE
COSMOS 2428 4.0 07:47:44 37° NNW 07:47:44 37° NNW 07:51:26 10° N
ATLAS 3B R/B 4.4 07:53:07 10° NW 07:56:50 23° W 07:56:50 23° W
CZ-4C R/B 3.3 07:51:36 10° NNW 07:59:15 62° ENE 07:59:53 61° ENE
NOSS 3-1 (C) 4.2 08:03:25 10° NNW 08:10:48 76° WNW 08:10:48 76° WNW
Cosmos 2278 Rocket 3.4 08:13:51 10° N 08:17:53 39° NNE 08:17:53 39° NNE
Lacrosse 5 3.9 08:22:52 24° NE 08:22:52 24° NE 08:24:51 10° NE
SL-16 R/B 3.7 08:31:39 29° ENE 08:31:39 29° ENE 08:34:54 10° NE
SL-16 R/B 4.3 08:46:14 19° E 08:48:45 24° ENE 08:53:34 10° NNE
COSMOS 2455 3.7 09:01:17 41° E 09:01:17 41° E 09:05:53 10° NE
Cosmos 2315 Rocket 4.5 09:02:46 54° NW 09:02:46 54° NW 09:07:59 10° N
Cosmos 1709 Rocket 4.4 08:58:00 10° N 09:02:42 54° NNW 09:02:42 54° NNW
CZ-2D R/B 2.9 09:03:25 10° NNE 09:07:28 46° NE 09:07:28 46° NE
Lacrosse 5 rocket 3.8 09:12:11 19° NNE 09:12:11 19° NNE 09:13:26 10° NNE
USA 267 3.5 09:13:29 57° WNW 09:13:29 57° WNW 09:18:35 10° NW
Meteor 2-5 Rocket 4.2 09:22:35 56° NNW 09:22:35 56° NNW 09:27:11 10° N
Cosmos 2237 Rocket 4.0 09:25:45 20° NW 09:25:45 20° NW 09:29:37 10° NNW
USA 229 DEB 4.2 09:21:08 10° NW 09:27:29 53° W 09:27:29 53° W
USA 229 4.2 09:21:13 10° NW 09:27:37 54° W 09:27:37 54° W
Resurs 1-4 Rocket 2.4 09:28:03 10° N 09:32:24 60° N 09:32:24 60° N
Nadezhda 1 Rocket 4.1 09:38:22 62° SE 09:39:04 67° E 09:45:19 10° NNE
NOSS 3-3 (A) 4.2 09:39:55 51° ESE 09:39:55 51° ESE 09:45:26 10° NE
NOSS 3-3 (C) 4.2 09:40:00 50° ESE 09:40:00 50° ESE 09:45:31 10° NE
IDEFIX/ARIANE 42P 3.0 09:39:53 10° NNE 09:45:02 54° E 09:45:05 53° ESE
Cosmos 1943 Rocket 2.4 09:40:13 10° NNW 09:45:53 68° ENE 09:46:34 62° ESE
ADEOS II 2.2 09:41:16 10° NNE 09:46:18 69° E 09:46:18 69° E
CZ-4C R/B 4.3 09:41:01 10° NW 09:44:59 24° W 09:44:59 24° W
MOS 1 Rocket 3.9 09:49:39 48° NE 09:49:39 48° NE 09:53:17 10° N
Cosmos 2297 4.1 09:48:06 10° NNW 09:53:47 61° ENE 09:55:48 38° SE
ATLAS 2A CENTAUR R/B 4.5 09:50:14 36° SW 09:59:33 57° S 10:08:58 10° E
Cosmos 2278 Rocket 4.4 09:59:08 10° WNW 09:59:42 12° WNW 09:59:42 12° WNW
Lacrosse 5 3.9 10:02:02 17° NW 10:03:10 18° NW 10:06:41 10° N
Cosmos 1455 4.1 10:00:48 10° NNW 10:02:19 23° NNW 10:02:19 23° NNW
NPP 4.2 10:04:07 10° N 10:09:05 43° WNW 10:09:05 43° WNW
SL-16 R/B 3.5 10:13:31 25° WNW 10:13:52 25° WNW 10:18:28 10° N
Cosmos 1271 Rocket 3.5 10:10:09 10° N 10:13:06 50° N 10:13:06 50° N
Cosmos 2369 Rocket 3.2 10:11:00 10° N 10:16:20 43° ENE 10:21:37 10° SE
Meteor 1-21 Rocket 4.2 10:17:57 55° S 10:19:13 82° E 10:24:49 10° N
Cosmos 2154 Rocket 3.9 10:13:27 10° N 10:19:47 75° W 10:21:27 51° SSW
Cosmos 2228 3.2 10:17:50 10° N 10:22:09 67° E 10:22:39 60° SE
SL-16 R/B 2.8 10:31:19 44° WSW 10:31:57 45° W 10:37:54 10° NNW
Cosmos 1603 3.6 10:35:48 50° SW 10:37:17 75° WNW 10:42:56 10° NNE
Cosmos 1371 Rocket 4.3 10:35:37 37° SSE 10:37:30 62° ESE 10:42:36 10° NNE
GPS 2-04 Rocket1 2.6 10:39:11 63° ENE 10:39:11 63° ENE 10:42:11 10° ENE
Cosmos 1328 3.6 10:41:59 75° WSW 10:42:11 78° W 10:46:10 10° N
COSMOS 2455 4.2 10:44:25 21° W 10:46:16 25° NW 10:51:08 10° N
Cosmos 1140 Rocket 4.3 10:41:16 10° N 10:46:22 50° ENE 10:51:25 10° SE
CZ-2D R/B 4.0 10:45:14 10° NNW 10:48:08 15° WNW 10:48:47 15° WNW
SeaSat 1 4.4 10:44:59 10° NE 10:48:53 23° ESE 10:52:45 10° SSE
DNEPR-1 R/B 4.1 10:50:23 37° WNW 10:51:00 39° WNW 10:55:09 10° NNE
Helios 1B rocket 2.5 10:48:00 10° NNE 10:52:03 72° ESE 10:53:30 38° S
MOS 1-B Rocket 4.4 10:47:48 10° SSE 10:53:18 57° ENE 10:58:51 10° N
Cosmos 1825 4.4 10:51:23 10° SE 10:54:17 22° E 10:57:12 10° NE
Cosmos 1606 Rocket 3.5 10:55:18 10° NNW 10:59:39 66° W 11:01:20 35° SSW
Cosmos 1241 Rocket 4.4 10:56:54 32° SW 10:59:56 80° WNW 11:06:10 10° NNE
OAO 2 Rocket 3.3 11:00:43 30° W 11:03:11 80° N 11:08:08 10° ENE
Helios 1A 4.0 11:04:40 28° W 11:04:40 28° W 11:07:59 10° NW
Cosmos 2218 Rocket 4.1 10:58:31 10° N 11:04:48 78° E 11:11:07 10° S
Cosmos 1943 4.0 11:05:15 27° WSW 11:07:24 35° WNW 11:12:36 10° N
Lacrosse 4 Rocket 1.7 11:07:58 26° S 11:10:15 64° ESE 11:14:28 10° NNE
Cosmos 1408 2.4 11:09:12 36° SSW 11:10:35 81° W 11:14:13 10° N
Cosmos 1624 Rocket 4.0 11:07:53 29° SSW 11:10:35 67° WNW 11:15:53 10° N
SEDSat Delta rocket 4.0 11:08:03 25° WSW 11:12:15 73° S 11:18:58 10° E
Meteor 1-11 4.2 11:09:14 21° SSW 11:13:11 76° W 11:18:59 10° N
Cosmos 2181 Rocket 4.1 11:10:08 23° SSW 11:14:02 59° W 11:20:08 10° N
Cosmos 1892 2.5 11:12:43 28° S 11:14:37 85° W 11:18:24 10° N
Cosmos 1959 Rocket 4.4 11:11:06 10° N 11:17:21 86° W 11:23:29 10° S
ARIANE 5 R/B 2.9 11:12:48 10° NNE 11:17:47 62° ESE 11:22:41 10° S
IRS-1C 4.2 11:13:42 10° NNE 11:19:04 80° ESE 11:23:53 13° S
Okean 1-7 Rocket 3.6 11:16:36 15° S 11:20:13 79° E 11:24:38 10° N
Meteor 2-1 Rocket 4.4 11:14:47 10° NNW 11:20:15 50° W 11:24:41 15° SSW
CBERS-1 4.4 11:16:19 10° N 11:21:11 46° WNW 11:24:04 23° SW
Cosmos 2056 Rocket 3.8 11:19:47 25° SW 11:22:35 50° WNW 11:27:40 10° N
OAO 3 Copernicus 4.3 11:20:38 25° WSW 11:23:34 74° SSE 11:28:35 10° ENE
IDEFIX/ARIANE 42P 4.4 11:21:03 10° NNW 11:24:05 16° WNW 11:25:53 13° W
ADEOS II 4.1 11:23:33 10° NW 11:25:31 12° WNW 11:27:14 10° W
Cosmos 864 Rocket 4.4 11:20:47 10° N 11:26:54 71° W 11:32:58 10° S
Cosmos 1943 Rocket 4.0 11:26:44 10° WNW 11:28:00 12° W 11:28:00 12° W
ALOS 2.2 11:25:26 10° N 11:30:06 73° WNW 11:34:00 14° SSW
FENGYUN 3A 3.7 11:25:14 10° N 11:30:33 63° WNW 11:35:03 15° SSW
ATLAS 3B CENTAUR R/B 3.1 11:31:03 14° S 11:33:06 20° SSE 11:37:09 10° ESE
Cosmos 1602 Rocket 4.2 11:29:30 10° S 11:33:53 57° E 11:38:14 10° NNE
Cosmos 2263 4.4 11:32:58 10° NNW 11:38:24 47° WSW 11:43:52 10° S
Cosmos 1726 Rocket 4.5 11:34:45 10° NNW 11:38:32 29° W 11:41:07 17° SW
Cosmos 2251 Rocket 4.5 11:34:16 10° NW 11:38:36 26° W 11:42:12 13° SSW
Cosmos 1190 Rocket 4.0 11:36:51 10° NNW 11:42:09 75° WSW 11:47:25 10° S
Meteor 1-29 2.9 11:43:02 10° N 11:46:15 59° WNW 11:49:07 12° SSW
CZ-2C R/B 2.8 11:45:05 10° N 11:49:55 47° WNW 11:54:36 10° SW
PAYLOAD A 4.4 11:48:59 10° N 11:53:28 42° WNW 11:58:05 10° SW
